カタログに戻る

CZ-6A DEB

運用中SSO
NORAD 55546·DEBRIS·🇨🇳 China

打ち上げ Nov 11, 2022 から Taiyuan Satellite Launch Center

Loading…

次のパス (今後24時間)

TLE

最新Source: Space-Track

元期: Sep 14, 2026, 14:43 UTC

1 55546U 22151YU  26257.61356726  .00000941  00000-0  24055-3 0  9997
2 55546  98.5981 312.3677 0131318  45.7995 315.3896 14.47879015201949

AllMySatでCZ-6A DEBをリアルタイム追跡

Download on the App Store